BTK401 WARR-WICC

Flight info

Callsign BTK401
Flight time 1h 4m
Altitude 30000
Route LASEM CUCUT W16 KIDET CA
Aircraft B738/M-SDFGHIRWY/EB2

Departure

Time 2026-04-27 02:52
Airport Juanda International Airport (WARR)

Arrival

Time 2026-04-27 03:56
Airport Husein Sastranegara International Airport (WICC)
Time Latitude Longitude Altitude Speed Heading
2026-04-27 02:20 -7.37557 112.79294 17 ft 0 kts 11°
2026-04-27 02:40 -7.37563 112.79292 17 ft 2 kts 11°
2026-04-27 02:40 -7.37583 112.79289 18 ft 3 kts
2026-04-27 02:40 -7.37603 112.79286 20 ft 3 kts
2026-04-27 02:40 -7.37620 112.79283 19 ft 2 kts
2026-04-27 02:41 -7.37638 112.79282 18 ft 3 kts 336°
2026-04-27 02:41 -7.37651 112.79293 17 ft 3 kts 289°
2026-04-27 02:41 -7.37655 112.79309 18 ft 1 kts 279°
2026-04-27 02:41 -7.37656 112.79314 17 ft 0 kts 279°
2026-04-27 02:44 -7.37656 112.79311 18 ft 2 kts 279°
2026-04-27 02:45 -7.37653 112.79297 17 ft 5 kts 279°
2026-04-27 02:45 -7.37647 112.79258 17 ft 6 kts 279°
2026-04-27 02:45 -7.37640 112.79216 17 ft 6 kts 279°
2026-04-27 02:45 -7.37631 112.79160 19 ft 6 kts 279°
2026-04-27 02:46 -7.37630 112.79132 17 ft 6 kts 261°
2026-04-27 02:46 -7.37655 112.79100 17 ft 6 kts 208°
2026-04-27 02:46 -7.37697 112.79091 17 ft 7 kts 191°
2026-04-27 02:46 -7.37743 112.79082 17 ft 7 kts 190°
2026-04-27 02:47 -7.37794 112.79076 17 ft 8 kts 186°
2026-04-27 02:47 -7.37846 112.79062 18 ft 8 kts 220°
2026-04-27 02:47 -7.37859 112.79009 17 ft 8 kts 274°
2026-04-27 02:47 -7.37856 112.78952 17 ft 8 kts 274°
2026-04-27 02:48 -7.37852 112.78896 17 ft 8 kts 274°
2026-04-27 02:48 -7.37848 112.78842 18 ft 8 kts 274°
2026-04-27 02:48 -7.37836 112.78782 17 ft 12 kts 283°
2026-04-27 02:48 -7.37808 112.78672 17 ft 21 kts 284°
2026-04-27 02:49 -7.37780 112.78508 18 ft 24 kts 279°
2026-04-27 02:49 -7.37755 112.78350 18 ft 23 kts 279°
2026-04-27 02:49 -7.37731 112.78195 18 ft 22 kts 279°
2026-04-27 02:49 -7.37704 112.78044 19 ft 21 kts 280°
2026-04-27 02:50 -7.37681 112.77898 19 ft 21 kts 279°
2026-04-27 02:50 -7.37658 112.77756 19 ft 20 kts 279°
2026-04-27 02:50 -7.37636 112.77618 19 ft 20 kts 279°
2026-04-27 02:50 -7.37614 112.77486 19 ft 19 kts 279°
2026-04-27 02:51 -7.37653 112.77384 18 ft 17 kts 196°
2026-04-27 02:51 -7.37762 112.77384 20 ft 16 kts 136°
2026-04-27 02:51 -7.37790 112.77505 19 ft 31 kts 99°
2026-04-27 02:51 -7.37865 112.77972 20 ft 102 kts 99°
2026-04-27 02:52 -7.38013 112.78876 18 ft 159 kts 99°
2026-04-27 02:52 -7.38244 112.80115 203 ft 194 kts 100°
2026-04-27 02:52 -7.38451 112.81465 964 ft 201 kts 98°
2026-04-27 02:52 -7.38673 112.82957 1030 ft 237 kts 97°
2026-04-27 02:53 -7.38976 112.84764 858 ft 277 kts 101°
2026-04-27 02:53 -7.39340 112.86702 1307 ft 290 kts 99°
2026-04-27 02:53 -7.39634 112.88825 1545 ft 318 kts 96°
2026-04-27 02:53 -7.39908 112.91030 2237 ft 319 kts 98°
2026-04-27 02:54 -7.40206 112.93206 3350 ft 306 kts 96°
2026-04-27 02:54 -7.39968 112.95259 4419 ft 295 kts 69°
2026-04-27 02:54 -7.38886 112.96940 5513 ft 283 kts 46°
2026-04-27 02:54 -7.37312 112.98079 6462 ft 279 kts 26°
2026-04-27 02:55 -7.35441 112.98620 7091 ft 284 kts
2026-04-27 02:55 -7.33450 112.98524 7700 ft 291 kts 347°
2026-04-27 02:55 -7.31565 112.97750 8340 ft 294 kts 334°
2026-04-27 02:55 -7.29755 112.96772 8973 ft 298 kts 332°
2026-04-27 02:56 -7.27925 112.95747 9606 ft 301 kts 332°
2026-04-27 02:56 -7.26085 112.94717 10182 ft 306 kts 332°
2026-04-27 02:56 -7.24158 112.93647 10377 ft 325 kts 332°
2026-04-27 02:56 -7.22120 112.92524 10682 ft 338 kts 332°
2026-04-27 02:57 -7.20041 112.91385 11194 ft 343 kts 333°
2026-04-27 02:57 -7.17937 112.90235 11791 ft 346 kts 333°
2026-04-27 02:57 -7.15839 112.89091 12361 ft 349 kts 333°
2026-04-27 02:57 -7.13844 112.87672 12890 ft 356 kts 313°
2026-04-27 02:58 -7.12467 112.85560 13512 ft 360 kts 291°
2026-04-27 02:58 -7.11842 112.83141 14064 ft 362 kts 280°
2026-04-27 02:58 -7.11403 112.80635 14634 ft 364 kts 278°
2026-04-27 02:58 -7.10991 112.78107 15199 ft 367 kts 278°
2026-04-27 02:59 -7.10571 112.75560 15784 ft 369 kts 279°
2026-04-27 02:59 -7.10141 112.73032 16351 ft 372 kts 279°
2026-04-27 02:59 -7.09693 112.70462 16920 ft 375 kts 279°
2026-04-27 02:59 -7.09230 112.67856 17459 ft 379 kts 279°
2026-04-27 03:00 -7.08761 112.65234 17999 ft 382 kts 279°
2026-04-27 03:00 -7.08288 112.62594 18503 ft 384 kts 279°
2026-04-27 03:00 -7.07816 112.59961 18952 ft 387 kts 279°
2026-04-27 03:00 -7.07335 112.57280 19411 ft 390 kts 279°
2026-04-27 03:01 -7.06850 112.54587 19891 ft 392 kts 280°
2026-04-27 03:01 -7.06362 112.51876 20364 ft 395 kts 280°
2026-04-27 03:01 -7.05871 112.49145 20803 ft 397 kts 280°
2026-04-27 03:01 -7.05376 112.46396 21255 ft 400 kts 280°
2026-04-27 03:02 -7.04878 112.43629 21688 ft 403 kts 280°
2026-04-27 03:02 -7.04376 112.40841 22124 ft 405 kts 280°
2026-04-27 03:02 -7.03872 112.38039 22553 ft 408 kts 280°
2026-04-27 03:02 -7.03364 112.35221 22954 ft 411 kts 280°
2026-04-27 03:03 -7.02856 112.32400 23276 ft 416 kts 280°
2026-04-27 03:03 -7.01425 112.26740 23954 ft 420 kts 292°
2026-04-27 03:03 -7.00290 112.24016 24312 ft 422 kts 294°
2026-04-27 03:04 -6.99131 112.21304 24709 ft 422 kts 293°
2026-04-27 03:04 -6.98002 112.18564 25065 ft 423 kts 292°
2026-04-27 03:04 -6.96901 112.15807 25380 ft 426 kts 292°
2026-04-27 03:04 -6.95724 112.13055 25694 ft 428 kts 299°
2026-04-27 03:05 -6.94186 112.10489 26022 ft 429 kts 304°
2026-04-27 03:05 -6.92539 112.08021 26356 ft 430 kts 305°
2026-04-27 03:05 -6.90835 112.05536 26684 ft 432 kts 306°
2026-04-27 03:05 -6.89124 112.03032 27003 ft 434 kts 305°
2026-04-27 03:06 -6.87423 112.00510 27313 ft 436 kts 305°
2026-04-27 03:06 -6.85728 111.97962 27621 ft 438 kts 304°
2026-04-27 03:06 -6.84043 111.95405 27916 ft 440 kts 304°
2026-04-27 03:06 -6.82348 111.92820 28224 ft 442 kts 304°
2026-04-27 03:07 -6.80676 111.90265 28532 ft 444 kts 304°
2026-04-27 03:07 -6.78977 111.87666 28821 ft 445 kts 304°
2026-04-27 03:07 -6.77270 111.85057 29103 ft 447 kts 304°
2026-04-27 03:07 -6.75550 111.82430 29364 ft 449 kts 304°
2026-04-27 03:08 -6.73822 111.79793 29622 ft 451 kts 304°
2026-04-27 03:08 -6.72106 111.77174 29880 ft 453 kts 304°
2026-04-27 03:08 -6.70367 111.74520 30104 ft 455 kts 304°
2026-04-27 03:08 -6.68615 111.71846 30326 ft 456 kts 304°
2026-04-27 03:09 -6.66865 111.69177 30531 ft 458 kts 304°
2026-04-27 03:09 -6.65111 111.66501 30752 ft 459 kts 304°
2026-04-27 03:09 -6.63351 111.63818 30957 ft 461 kts 304°
2026-04-27 03:09 -6.61580 111.61115 31154 ft 462 kts 304°
2026-04-27 03:10 -6.59840 111.58397 31351 ft 464 kts 303°
2026-04-27 03:10 -6.58111 111.55641 31545 ft 465 kts 303°
2026-04-27 03:10 -6.56412 111.52912 31729 ft 467 kts 303°
2026-04-27 03:10 -6.54681 111.50130 31911 ft 469 kts 303°
2026-04-27 03:11 -6.52945 111.47347 32098 ft 470 kts 303°
2026-04-27 03:11 -6.51199 111.44556 32248 ft 472 kts 303°
2026-04-27 03:11 -6.49442 111.41751 32427 ft 473 kts 303°
2026-04-27 03:11 -6.47681 111.38946 32573 ft 475 kts 303°
2026-04-27 03:12 -6.45910 111.36125 32708 ft 478 kts 303°
2026-04-27 03:12 -6.44147 111.33318 32836 ft 480 kts 303°
2026-04-27 03:12 -6.42367 111.30483 33003 ft 481 kts 303°
2026-04-27 03:12 -6.40575 111.27630 33175 ft 481 kts 303°
2026-04-27 03:13 -6.38781 111.24773 33348 ft 482 kts 303°
2026-04-27 03:13 -6.37007 111.21949 33553 ft 482 kts 303°
2026-04-27 03:13 -6.35220 111.19103 33807 ft 481 kts 303°
2026-04-27 03:13 -6.33436 111.16264 34041 ft 480 kts 303°
2026-04-27 03:14 -6.31701 111.13393 34223 ft 480 kts 298°
2026-04-27 03:14 -6.30409 111.10286 34398 ft 482 kts 288°
2026-04-27 03:14 -6.29625 111.07014 34608 ft 482 kts 279°
2026-04-27 03:14 -6.29368 111.03685 34811 ft 482 kts 271°
2026-04-27 03:15 -6.29390 111.00314 35008 ft 482 kts 270°
2026-04-27 03:15 -6.29456 110.96943 35189 ft 482 kts 269°
2026-04-27 03:15 -6.29524 110.93580 35345 ft 482 kts 270°
2026-04-27 03:15 -6.29579 110.90187 35482 ft 482 kts 270°
2026-04-27 03:16 -6.29616 110.86837 35620 ft 481 kts 270°
2026-04-27 03:16 -6.29641 110.83493 35756 ft 480 kts 270°
2026-04-27 03:16 -6.29658 110.80126 35864 ft 480 kts 270°
2026-04-27 03:17 -6.29685 110.73387 35882 ft 481 kts 270°
2026-04-27 03:17 -6.29713 110.66711 35887 ft 480 kts 270°
2026-04-27 03:18 -6.29742 110.60012 35887 ft 478 kts 270°
2026-04-27 03:18 -6.29771 110.53310 35889 ft 478 kts 270°
2026-04-27 03:19 -6.29799 110.46669 35884 ft 477 kts 270°
2026-04-27 03:19 -6.29827 110.40026 35883 ft 477 kts 270°
2026-04-27 03:20 -6.29851 110.33354 35884 ft 477 kts 270°
2026-04-27 03:20 -6.29872 110.26705 35885 ft 478 kts 270°
2026-04-27 03:21 -6.29892 110.20001 35886 ft 479 kts 270°
2026-04-27 03:21 -6.29912 110.13295 35885 ft 480 kts 270°
2026-04-27 03:22 -6.29930 110.06616 35883 ft 480 kts 270°
2026-04-27 03:22 -6.29949 109.99884 35882 ft 481 kts 270°
2026-04-27 03:23 -6.29966 109.93189 35884 ft 482 kts 270°
2026-04-27 03:23 -6.29982 109.86443 35888 ft 482 kts 270°
2026-04-27 03:24 -6.29998 109.79689 35886 ft 482 kts 270°
2026-04-27 03:24 -6.30013 109.72990 35885 ft 482 kts 270°
2026-04-27 03:25 -6.30027 109.66209 35887 ft 482 kts 270°
2026-04-27 03:25 -6.30040 109.59525 35885 ft 481 kts 270°
2026-04-27 03:26 -6.30052 109.52799 35885 ft 481 kts 270°
2026-04-27 03:26 -6.30063 109.46072 35884 ft 480 kts 270°
2026-04-27 03:27 -6.30074 109.39352 35885 ft 480 kts 270°
2026-04-27 03:27 -6.30701 109.32699 35890 ft 479 kts 256°
2026-04-27 03:28 -6.33133 109.26495 35898 ft 478 kts 242°
2026-04-27 03:28 -6.36247 109.20635 35889 ft 478 kts 241°
2026-04-27 03:29 -6.39386 109.14731 35888 ft 478 kts 242°
2026-04-27 03:29 -6.42495 109.08776 35892 ft 479 kts 242°
2026-04-27 03:30 -6.45554 109.02867 35565 ft 471 kts 242°
2026-04-27 03:30 -6.47036 109.00000 35329 ft 462 kts 242°
2026-04-27 03:30 -6.48515 108.97139 35087 ft 454 kts 242°
2026-04-27 03:30 -6.49955 108.94356 34854 ft 451 kts 242°
2026-04-27 03:31 -6.51413 108.91539 34630 ft 451 kts 242°
2026-04-27 03:31 -6.52849 108.88764 34406 ft 450 kts 242°
2026-04-27 03:31 -6.54299 108.85964 34186 ft 449 kts 242°
2026-04-27 03:31 -6.55724 108.83210 33968 ft 448 kts 242°
2026-04-27 03:32 -6.57165 108.80423 33723 ft 448 kts 242°
2026-04-27 03:32 -6.58612 108.77626 33469 ft 447 kts 242°
2026-04-27 03:32 -6.60033 108.74879 33225 ft 446 kts 242°
2026-04-27 03:32 -6.61465 108.72109 32929 ft 442 kts 242°
2026-04-27 03:33 -6.62878 108.69373 32563 ft 438 kts 242°
2026-04-27 03:33 -6.64268 108.66683 32172 ft 435 kts 242°
2026-04-27 03:33 -6.65663 108.63983 31798 ft 432 kts 242°
2026-04-27 03:33 -6.67035 108.61328 31417 ft 429 kts 242°
2026-04-27 03:34 -6.68409 108.58669 31038 ft 426 kts 242°
2026-04-27 03:34 -6.69766 108.56036 30664 ft 424 kts 243°
2026-04-27 03:34 -6.70990 108.53363 30301 ft 421 kts 247°
2026-04-27 03:34 -6.72094 108.50630 29952 ft 419 kts 248°
2026-04-27 03:35 -6.73151 108.47884 29514 ft 416 kts 249°
2026-04-27 03:35 -6.74175 108.45207 29109 ft 414 kts 249°
2026-04-27 03:35 -6.75213 108.42518 28694 ft 411 kts 248°
2026-04-27 03:35 -6.76258 108.39846 28303 ft 408 kts 248°
2026-04-27 03:36 -6.77302 108.37203 27903 ft 405 kts 248°
2026-04-27 03:36 -6.78346 108.34575 27521 ft 403 kts 248°
2026-04-27 03:36 -6.79384 108.31970 27132 ft 400 kts 248°
2026-04-27 03:36 -6.80419 108.29377 26759 ft 397 kts 248°
2026-04-27 03:37 -6.81101 108.27669 26515 ft 396 kts 247°
2026-04-27 03:37 -6.82455 108.24275 26019 ft 393 kts 247°
2026-04-27 03:37 -6.83143 108.22548 25766 ft 392 kts 247°
2026-04-27 03:37 -6.84156 108.20006 25390 ft 390 kts 247°
2026-04-27 03:38 -6.85153 108.17507 25016 ft 389 kts 247°
2026-04-27 03:38 -6.86158 108.14985 24631 ft 388 kts 247°
2026-04-27 03:38 -6.87163 108.12465 24257 ft 387 kts 247°
2026-04-27 03:38 -6.88488 108.09137 23760 ft 385 kts 247°
2026-04-27 03:39 -6.89160 108.07449 23503 ft 385 kts 247°
2026-04-27 03:39 -6.90150 108.04963 23304 ft 377 kts 247°
2026-04-27 03:39 -6.91114 108.02540 23135 ft 370 kts 247°
2026-04-27 03:39 -6.92053 108.00180 22791 ft 367 kts 247°
2026-04-27 03:40 -6.93002 107.97798 22363 ft 367 kts 247°
2026-04-27 03:40 -6.93953 107.95410 21964 ft 365 kts 247°
2026-04-27 03:40 -6.94888 107.93059 21604 ft 363 kts 247°
2026-04-27 03:40 -6.95832 107.90687 21236 ft 361 kts 247°
2026-04-27 03:41 -6.96767 107.88334 20904 ft 360 kts 247°
2026-04-27 03:41 -6.97684 107.86024 20597 ft 358 kts 247°
2026-04-27 03:41 -6.98612 107.83687 20251 ft 356 kts 247°
2026-04-27 03:41 -6.99522 107.81393 19926 ft 355 kts 247°
2026-04-27 03:42 -7.00441 107.79077 19609 ft 354 kts 247°
2026-04-27 03:42 -7.01344 107.76800 19291 ft 352 kts 247°
2026-04-27 03:42 -7.02254 107.74506 18971 ft 351 kts 247°
2026-04-27 03:42 -7.03148 107.72248 18666 ft 349 kts 247°
2026-04-27 03:43 -7.04044 107.69989 18365 ft 348 kts 247°
2026-04-27 03:43 -7.04944 107.67721 18038 ft 347 kts 247°
2026-04-27 03:43 -7.05834 107.65474 17706 ft 345 kts 247°
2026-04-27 03:43 -7.06720 107.63237 17383 ft 343 kts 247°
2026-04-27 03:44 -7.07603 107.61008 16981 ft 343 kts 247°
2026-04-27 03:44 -7.08209 107.58672 16464 ft 349 kts 266°
2026-04-27 03:44 -7.08234 107.56220 16026 ft 351 kts 270°
2026-04-27 03:44 -7.08221 107.53779 15546 ft 354 kts 269°
2026-04-27 03:45 -7.08234 107.51295 15101 ft 356 kts 269°
2026-04-27 03:45 -7.08256 107.48791 14628 ft 358 kts 270°
2026-04-27 03:45 -7.07845 107.46313 14157 ft 361 kts 289°
2026-04-27 03:45 -7.06950 107.43960 13943 ft 353 kts 291°
2026-04-27 03:46 -7.06088 107.41710 13829 ft 337 kts 291°
2026-04-27 03:46 -7.05280 107.39550 13615 ft 323 kts 290°
2026-04-27 03:46 -7.04516 107.37468 13129 ft 321 kts 290°
2026-04-27 03:46 -7.03748 107.35354 12599 ft 320 kts 290°
2026-04-27 03:47 -7.02985 107.33255 12146 ft 317 kts 290°
2026-04-27 03:47 -7.02237 107.31178 11738 ft 314 kts 290°
2026-04-27 03:47 -7.01505 107.29111 11279 ft 312 kts 289°
2026-04-27 03:47 -7.00779 107.27060 10843 ft 311 kts 289°
2026-04-27 03:48 -7.00053 107.25013 10446 ft 308 kts 289°
2026-04-27 03:48 -6.99335 107.22986 10063 ft 305 kts 289°
2026-04-27 03:48 -6.98479 107.21050 9574 ft 304 kts 307°
2026-04-27 03:48 -6.96856 107.19743 9132 ft 298 kts 340°
2026-04-27 03:49 -6.94889 107.19505 8822 ft 284 kts 13°
2026-04-27 03:49 -6.93131 107.20207 8751 ft 266 kts 32°
2026-04-27 03:49 -6.91620 107.21275 8472 ft 266 kts 43°
2026-04-27 03:49 -6.90419 107.22705 7998 ft 272 kts 60°
2026-04-27 03:50 -6.89490 107.24398 7534 ft 279 kts 64°
2026-04-27 03:50 -6.88604 107.26148 7076 ft 283 kts 64°
2026-04-27 03:50 -6.87522 107.27787 6876 ft 279 kts 44°
2026-04-27 03:50 -6.86243 107.29190 6756 ft 268 kts 64°
2026-04-27 03:51 -6.85814 107.30942 6727 ft 250 kts 84°
2026-04-27 03:51 -6.85526 107.32620 6619 ft 237 kts 78°
2026-04-27 03:51 -6.85116 107.34171 6539 ft 227 kts 74°
2026-04-27 03:51 -6.84650 107.35654 6402 ft 218 kts 72°
2026-04-27 03:52 -6.84168 107.37088 6134 ft 216 kts 72°
2026-04-27 03:52 -6.83679 107.38507 5888 ft 212 kts 71°
2026-04-27 03:52 -6.83504 107.39915 5800 ft 198 kts 102°
2026-04-27 03:52 -6.84030 107.41150 5590 ft 194 kts 131°
2026-04-27 03:53 -6.84970 107.42127 5298 ft 196 kts 118°
2026-04-27 03:53 -6.85367 107.43419 5023 ft 191 kts 105°
2026-04-27 03:53 -6.85739 107.44696 4747 ft 187 kts 107°
2026-04-27 03:53 -6.86125 107.45901 4480 ft 180 kts 108°
2026-04-27 03:54 -6.86504 107.47085 4336 ft 178 kts 108°
2026-04-27 03:54 -6.86900 107.48293 4053 ft 181 kts 108°
2026-04-27 03:54 -6.87289 107.49470 3848 ft 175 kts 109°
2026-04-27 03:54 -6.87674 107.50610 3639 ft 171 kts 109°
2026-04-27 03:55 -6.88056 107.51735 3413 ft 168 kts 108°
2026-04-27 03:55 -6.88433 107.52842 3196 ft 166 kts 108°
2026-04-27 03:55 -6.88805 107.53929 3038 ft 161 kts 108°
2026-04-27 03:55 -6.89166 107.54989 2822 ft 161 kts 108°
2026-04-27 03:56 -6.89514 107.56062 2631 ft 161 kts 107°
2026-04-27 03:56 -6.89885 107.57117 2426 ft 156 kts 108°
2026-04-27 03:56 -6.90119 107.57788 2424 ft 102 kts 108°
2026-04-27 03:56 -6.90281 107.58268 2430 ft 35 kts 109°
2026-04-27 03:57 -6.90328 107.58409 2428 ft 20 kts 108°
2026-04-27 03:57 -6.90384 107.58506 2417 ft 12 kts 137°
2026-04-27 03:57 -6.90397 107.58530 2424 ft 0 kts 98°
2026-04-27 03:57 -6.90396 107.58531 2417 ft 0 kts 88°
2026-04-27 03:58 -6.90395 107.58531 2417 ft 0 kts 75°
2026-04-27 03:58 -6.90393 107.58532 2417 ft 0 kts 37°
2026-04-27 03:58 -6.90390 107.58530 2416 ft 0 kts 359°
2026-04-27 03:58 -6.90389 107.58528 2422 ft 0 kts 330°
2026-04-27 03:59 -6.90374 107.58516 2424 ft 15 kts 312°
2026-04-27 03:59 -6.90327 107.58383 2429 ft 19 kts 287°
2026-04-27 03:59 -6.90288 107.58271 2430 ft 15 kts 289°
2026-04-27 03:59 -6.90255 107.58173 2437 ft 15 kts 289°
2026-04-27 04:00 -6.90241 107.58081 2424 ft 11 kts 227°
2026-04-27 04:00 -6.90292 107.58033 2417 ft 10 kts 258°
2026-04-27 04:00 -6.90290 107.57982 2420 ft 6 kts 279°
2026-04-27 04:00 -6.90286 107.57964 2415 ft 0 kts 283°
2026-04-27 04:01 -6.90288 107.57962 2416 ft 0 kts 248°
2026-04-27 04:01 -6.90290 107.57960 2416 ft 0 kts 229°
2026-04-27 04:01 -6.90293 107.57960 2416 ft 0 kts 201°
2026-04-27 04:01 -6.90294 107.57959 2416 ft 0 kts 198°
2026-04-27 04:02 -6.90295 107.57959 2428 ft 0 kts 196°